{"data":{"norad_id":43286,"intl_designator":"2018-035A","name":"IRNSS-1I","alt_names":[],"object_type":"PAYLOAD","status":"ACTIVE","operator":null,"country":"IND","launch_date":"2018-04-11","launch_site_code":"SRILR","launch_vehicle":null,"mission":null,"orbit_class":"UNKNOWN","rcs_meters":null,"size_class":null,"mass_kg":null,"dimensions":null,"purposes":["comms","nav"],"wikipedia_slug":null,"has_3d_model":false,"image_url":null,"decayed_at":null,"tle_current":{"epoch":"2026-09-16T01:59:04.576704Z","epoch_age_seconds":399879,"freshness":"STALE","line1":"1 43286U 18035A   26259.08269186  .00000081  00000+0  00000+0 0  9991","line2":"2 43286  28.9650  72.7792 0020697 177.9946 189.1474  1.00272519 30998","mean_motion":1.00272519,"eccentricity":0.0020697,"inclination_deg":28.965,"raan_deg":72.7792,"arg_perigee_deg":177.9946,"mean_anomaly_deg":189.1474,"bstar":0,"rev_number":3099,"period_min":1436.0863917261,"perigee_km":35699.121275734,"apogee_km":35873.657115468,"semimajor_km":42164.526195601,"source":"CELESTRAK","updated_at":"2026-09-20T09:00:45.809452Z"}}}